Location: Siloam Springs
(36.1880°N, 94.5400°W)
Time: 15:47:47
(UTC-05:00)

ISS - Visible Passes

Search period start: 18 October 2019 00:00
Search period end: 28 October 2019 00:00
Orbit: 411 x 421 km, 51.6° (Epoch: 19 October)

Date Brightness Start Highest point End Pass type
(mag) Time Alt. Az. Time Alt. Az. Time Alt. Az.
21 Oct -0.7 06:46:35 10° SSE 06:48:31 15° SE 06:50:27 10° E visible
23 Oct -2.7 06:44:36 10° SSW 06:47:50 46° SE 06:51:05 10° ENE visible
24 Oct -1.6 05:56:58 12° S 05:59:23 24° SE 06:02:10 10° ENE visible
25 Oct -0.6 05:11:26 13° ESE 05:11:26 13° ESE 05:12:38 10° E visible
25 Oct -3.5 06:44:24 12° WSW 06:47:21 51° NW 06:50:38 10° NE visible
26 Oct -3.9 05:58:35 79° S 05:58:43 83° SE 06:02:06 10° NE visible
27 Oct -0.7 05:12:34 16° ENE 05:12:34 16° ENE 05:13:22 10° ENE visible
27 Oct -2.2 06:45:30 16° WNW 06:47:01 21° NNW 06:49:40 10° NNE visible
